Yosemite National Park, California, United States (95389)
Lat: 37.54N, Lon: 119.84W
Wx Zone: CAZ093
Local Info
Past Weather Observations for Monday, January 26, 2015

NOTE: This archive is for the closest National Weather Service station to Yosemite National Park. Information may differ from the station used for current weather conditions.

Click here for Long-term Archive

Time Weather Temperature Dewpoint Humidity Pressure Winds Precip Visibility
23:53
Clear
Fog And Mist
48°F / 9°C 45°F / 7°C 87% 30.06 in
(1018 mb)
SE 12.7 mph
(SE 20 kph)
- 2 1/2SM
23:40
Clear
Fog And Mist
46°F / 8°C 45°F / 7°C 93% 30.04 in
(1017 mb)
SE 8.1 mph
(SE 13 kph)
- 2SM
23:19
Clear
Fog And Mist
46°F / 8°C 43°F / 6°C 87% 30.04 in
(1017 mb)
SSE 6.9 mph
(SSE 11 kph)
- 1 3/4SM
22:53
Clear
Fog And Mist
46°F / 8°C 45°F / 7°C 93% 30.04 in
(1017 mb)
Calm - 2 1/2SM
21:53
Clear
Fog And Mist
46°F / 8°C 43°F / 6°C 87% 30.01 in
(1016 mb)
Calm - 2 1/2SM
21:32
Clear
Fog And Mist
48°F / 9°C 45°F / 7°C 87% 30.01 in
(1016 mb)
Calm - 2 1/2SM
20:53
Clear
Fog And Mist
48°F / 9°C 45°F / 7°C 87% 30.01 in
(1016 mb)
Calm - 3SM
20:44
Clear
Fog And Mist
48°F / 9°C 45°F / 7°C 87% 30.01 in
(1016 mb)
Calm - 2 1/2SM
19:53
Clear
Fog And Mist
48°F / 9°C 45°F / 7°C 87% 30.01 in
(1016 mb)
Calm - 3SM
18:53
Clear
Hazy
50°F / 10°C 45°F / 7°C 82% 30.04 in
(1017 mb)
Calm - 4SM
17:53
Clear
Fog And Mist
50°F / 10°C 46°F / 8°C 88% 30.01 in
(1016 mb)
SSE 3.5 mph
(SSE 6 kph)
- 4SM
16:53
Clear
Hazy
54°F / 12°C 46°F / 8°C 77% 30.01 in
(1016 mb)
SW 3.5 mph
(SW 6 kph)
- 4SM
15:53
Clear
Hazy
54°F / 12°C 46°F / 8°C 77% 30.01 in
(1016 mb)
E 4.6 mph
(E 7 kph)
- 4SM
14:53
Clear
Hazy
54°F / 12°C 46°F / 8°C 77% 30.01 in
(1016 mb)
SSE 4.6 mph
(SSE 7 kph)
- 5SM
13:53
Clear
Hazy
54°F / 12°C 46°F / 8°C 77% 30.04 in
(1017 mb)
ESE 3.5 mph
(ESE 6 kph)
- 5SM
12:53
Partly Cloudy
Hazy
50°F / 10°C 45°F / 7°C 82% 30.04 in
(1017 mb)
Calm - 4SM
12:26
Partly Cloudy
Fog And Mist
48°F / 9°C 45°F / 7°C 87% 30.04 in
(1017 mb)
Variable 3.5 mph
(Variable 6 kph)
- 3SM
12:04
Mostly Cloudy
Fog And Mist
46°F / 8°C 45°F / 7°C 93% 30.06 in
(1018 mb)
Variable 3.5 mph
(Variable 6 kph)
- 3SM
11:53
Mostly Cloudy
Fog And Mist
46°F / 8°C 45°F / 7°C 93% 30.06 in
(1018 mb)
Variable 3.5 mph
(Variable 6 kph)
- 3SM
11:48
Overcast
Fog And Mist
46°F / 8°C 45°F / 7°C 93% 30.06 in
(1018 mb)
SSW 4.6 mph
(SSW 7 kph)
- 2 1/2SM
11:31
Overcast
Fog And Mist
45°F / 7°C 41°F / 5°C 87% 30.06 in
(1018 mb)
Calm - 1 1/4SM
11:19
Overcast
Fog And Mist
43°F / 6°C 43°F / 6°C 100% 30.06 in
(1018 mb)
NNW 3.5 mph
(NNW 6 kph)
- 3/4SM
10:53
Obscured
Fog
43°F / 6°C 39°F / 4°C 87% 30.06 in
(1018 mb)
NW 5.8 mph
(NW 9 kph)
- 1/4SM
09:53
Obscured
Fog
39°F / 4°C 37°F / 3°C 93% 30.09 in
(1019 mb)
W 3.5 mph
(W 6 kph)
- 1/4SM
08:53
Obscured
Fog
37°F / 3°C 36°F / 2°C 93% 30.06 in
(1018 mb)
W 4.6 mph
(W 7 kph)
- M1/4SM
07:53
Obscured
Fog
36°F / 2°C 34°F / 1°C 93% 30.06 in
(1018 mb)
SSW 4.6 mph
(SSW 7 kph)
- M1/4SM
07:00
Obscured
Fog
34°F / 1°C 32°F / 0°C 93% 30.06 in
(1018 mb)
SW 4.6 mph
(SW 7 kph)
- 1/4SM
06:53
Obscured
Fog
34°F / 1°C 32°F / 0°C 93% 30.06 in
(1018 mb)
SSW 5.8 mph
(SSW 9 kph)
- 1/2SM
06:42
Obscured
Fog And Mist
36°F / 2°C 34°F / 1°C 93% 30.06 in
(1018 mb)
WNW 3.5 mph
(WNW 6 kph)
- 3/4SM
06:32
Partly Cloudy
Fog And Mist
36°F / 2°C 34°F / 1°C 93% 30.04 in
(1017 mb)
NNW 3.5 mph
(NNW 6 kph)
- 1 1/2SM
06:25
Obscured
Fog And Mist
36°F / 2°C 34°F / 1°C 93% 30.04 in
(1017 mb)
Calm - 1SM
06:00
Obscured
Fog
36°F / 2°C 34°F / 1°C 93% 30.04 in
(1017 mb)
N 3.5 mph
(N 6 kph)
- 1/2SM
05:53
Obscured
Fog
36°F / 2°C 34°F / 1°C 93% 30.04 in
(1017 mb)
N 3.5 mph
(N 6 kph)
- 1/4SM
05:51
Obscured
Fog
36°F / 2°C 34°F / 1°C 93% 30.04 in
(1017 mb)
N 3.5 mph
(N 6 kph)
- 1/4SM
04:53
Obscured
Fog
36°F / 2°C 34°F / 1°C 93% 30.06 in
(1018 mb)
Calm - M1/4SM
04:44
Obscured
Fog
36°F / 2°C 34°F / 1°C 93% 30.06 in
(1018 mb)
S 3.5 mph
(S 6 kph)
- M1/4SM
04:10
Obscured
Fog
36°F / 2°C 36°F / 2°C 100% 30.06 in
(1018 mb)
NE 3.5 mph
(NE 6 kph)
- 1/4SM
03:53
Overcast
Fog
36°F / 2°C 32°F / 0°C 87% 30.06 in
(1018 mb)
N 3.5 mph
(N 6 kph)
- 1/2SM
03:46
Overcast
Fog And Mist
36°F / 2°C 34°F / 1°C 93% 30.09 in
(1019 mb)
Calm - 1 3/4SM
03:36
Overcast
Fog And Mist
36°F / 2°C 34°F / 1°C 93% 30.06 in
(1018 mb)
Calm - 3SM
03:16
Overcast
Fog And Mist
36°F / 2°C 34°F / 1°C 93% 30.09 in
(1019 mb)
N 3.5 mph
(N 6 kph)
- 2SM
03:10
Overcast
Fog And Mist
34°F / 1°C 32°F / 0°C 93% 30.06 in
(1018 mb)
N 3.5 mph
(N 6 kph)
- 3/4SM
02:53
Obscured
Fog
34°F / 1°C 32°F / 0°C 93% 30.09 in
(1019 mb)
N 3.5 mph
(N 6 kph)
- 1/4SM
02:46
Obscured
Fog
34°F / 1°C 32°F / 0°C 93% 30.09 in
(1019 mb)
N 3.5 mph
(N 6 kph)
- 1/4SM
02:41
Overcast
Fog And Mist
34°F / 1°C 32°F / 0°C 93% 30.09 in
(1019 mb)
Calm - 1 1/4SM
02:32
Overcast
Fog And Mist
34°F / 1°C 32°F / 0°C 93% 30.09 in
(1019 mb)
Calm - 3SM
01:53
Obscured
Fog
34°F / 1°C 30°F / -1°C 87% 30.09 in
(1019 mb)
Calm - 1/4SM
01:49
Obscured
Fog
34°F / 1°C 32°F / 0°C 93% 30.09 in
(1019 mb)
Calm - 1/4SM
01:33
Obscured
Fog
34°F / 1°C 32°F / 0°C 93% 30.09 in
(1019 mb)
Calm - 1/4SM
00:53
Obscured
Fog
36°F / 2°C 32°F / 0°C 87% 30.09 in
(1019 mb)
Calm - 1/4SM
00:49
Obscured
Fog
36°F / 2°C 34°F / 1°C 93% 30.09 in
(1019 mb)
SSW 4.6 mph
(SSW 7 kph)
- 1/4SM
00:43
Obscured
Fog And Mist
36°F / 2°C 34°F / 1°C 93% 30.09 in
(1019 mb)
Calm - 1SM
00:31
Clear
Fog And Mist
37°F / 3°C 36°F / 2°C 93% 30.09 in
(1019 mb)
S 3.5 mph
(S 6 kph)
- 1 1/2SM
00:00
Clear
Fog And Mist
36°F / 2°C 36°F / 2°C 100% 30.09 in
(1019 mb)
SE 3.5 mph
(SE 6 kph)
- 2 1/2SM
Time Weather Temperature Dewpoint Humidity Pressure Winds Precip Visibility


Weather for websites

WeatherForYou.com, LLC is not responsible for any damages or problems caused by this service. Current weather conditions are obtained from the closest station including government and personal stations which may have varying degrees of accuracy. Weather forecasts are derived from the NOAA NDFD. Like all things, this site belongs to Jesus Christ... He just trusts me to maintain it. If you have any questions or comments email webmaster@weatherforyou.com

Copyright © 2015, WeatherForYou.com LLC. All rights reserved.